TimeCDT,TemperatureF,Dew PointF,Humidity,Sea Level PressureIn,VisibilityMPH,Wind Direction,Wind SpeedMPH,Gust SpeedMPH,PrecipitationIn,Events,Conditions,WindDirDegrees,DateUTC
12:04 AM,72.0,70.0,93,30.04,10.0,East,5.8,-,N/A,,Mostly Cloudy,80,2013-07-31 05:04:00
12:54 AM,73.0,71.1,93,30.03,10.0,North,3.5,-,N/A,,Overcast,10,2013-07-31 05:54:00
1:54 AM,71.1,70.0,96,30.02,9.0,NNE,3.5,-,0.00,,Mostly Cloudy,20,2013-07-31 06:54:00
2:07 AM,70.0,69.1,97,30.04,1.5,North,4.6,-,N/A,,Scattered Clouds,360,2013-07-31 07:07:00
2:18 AM,71.1,70.0,96,30.04,2.0,North,5.8,-,N/A,,Mostly Cloudy,10,2013-07-31 07:18:00
2:26 AM,72.0,70.0,93,30.04,8.0,NE,4.6,-,N/A,,Mostly Cloudy,40,2013-07-31 07:26:00
2:54 AM,72.0,70.0,93,30.01,10.0,Calm,Calm,-,N/A,,Overcast,0,2013-07-31 07:54:00
3:30 AM,71.1,70.0,96,30.04,10.0,Calm,Calm,-,N/A,,Overcast,0,2013-07-31 08:30:00
3:54 AM,72.0,70.0,93,30.01,10.0,Calm,Calm,-,N/A,,Overcast,0,2013-07-31 08:54:00
4:33 AM,72.0,70.0,93,30.04,8.0,North,6.9,-,N/A,,Mostly Cloudy,350,2013-07-31 09:33:00
4:41 AM,72.0,71.1,97,30.04,5.0,North,6.9,-,N/A,,Overcast,360,2013-07-31 09:41:00
4:49 AM,71.6,71.6,100,30.05,4.0,North,5.8,-,N/A,,Overcast,360,2013-07-31 09:49:00
4:54 AM,72.0,71.1,97,30.02,4.0,North,5.8,-,N/A,,Overcast,360,2013-07-31 09:54:00
5:41 AM,72.0,71.1,97,30.05,2.5,North,6.9,-,N/A,,Overcast,360,2013-07-31 10:41:00
5:54 AM,72.0,70.0,93,30.03,2.0,North,10.4,-,N/A,,Overcast,350,2013-07-31 10:54:00
6:20 AM,71.1,70.0,96,30.06,4.0,North,9.2,-,N/A,,Overcast,360,2013-07-31 11:20:00
6:40 AM,71.1,70.0,96,30.06,4.0,NNE,8.1,-,N/A,,Overcast,20,2013-07-31 11:40:00
6:51 AM,71.6,69.8,94,30.06,4.0,North,6.9,-,N/A,,Overcast,10,2013-07-31 11:51:00
6:54 AM,71.1,70.0,96,30.04,4.0,North,6.9,-,N/A,,Overcast,10,2013-07-31 11:54:00
7:54 AM,71.1,68.0,90,30.05,7.0,NNE,8.1,-,N/A,,Overcast,30,2013-07-31 12:54:00
8:54 AM,72.0,68.0,87,30.08,10.0,North,10.4,-,N/A,,Overcast,10,2013-07-31 13:54:00
8:58 AM,72.0,68.0,87,30.10,10.0,North,6.9,-,N/A,,Overcast,10,2013-07-31 13:58:00
9:54 AM,75.9,68.0,76,30.08,10.0,NNW,9.2,-,N/A,,Scattered Clouds,330,2013-07-31 14:54:00
10:54 AM,78.1,69.1,74,30.07,10.0,NNE,8.1,-,N/A,,Mostly Cloudy,20,2013-07-31 15:54:00
10:57 AM,78.1,69.1,74,30.09,10.0,North,9.2,-,N/A,,Mostly Cloudy,360,2013-07-31 15:57:00
11:46 AM,77.0,66.9,71,30.09,10.0,NW,10.4,-,N/A,,Overcast,320,2013-07-31 16:46:00
11:54 AM,77.0,66.9,71,30.07,10.0,NNW,12.7,-,N/A,,Overcast,340,2013-07-31 16:54:00
12:54 PM,73.9,66.0,76,30.08,10.0,NW,10.4,-,N/A,,Overcast,310,2013-07-31 17:54:00
1:54 PM,75.9,66.0,71,30.07,10.0,NNW,10.4,-,N/A,,Overcast,340,2013-07-31 18:54:00
2:54 PM,77.0,66.9,71,30.07,10.0,NNW,6.9,-,N/A,,Scattered Clouds,330,2013-07-31 19:54:00
3:04 PM,77.0,66.9,71,30.09,10.0,NNW,10.4,-,N/A,,Mostly Cloudy,330,2013-07-31 20:04:00
3:31 PM,78.1,66.9,68,30.09,10.0,NNW,11.5,-,N/A,,Overcast,340,2013-07-31 20:31:00
3:54 PM,75.9,66.0,71,30.07,10.0,NW,11.5,-,N/A,,Overcast,320,2013-07-31 20:54:00
4:54 PM,77.0,66.9,71,30.04,10.0,North,6.9,-,N/A,,Overcast,10,2013-07-31 21:54:00
5:40 PM,75.9,66.0,71,30.06,10.0,North,12.7,-,N/A,,Overcast,360,2013-07-31 22:40:00
5:50 PM,75.2,66.2,73,30.05,10.0,North,8.1,-,N/A,,Overcast,350,2013-07-31 22:50:00
5:54 PM,75.9,66.0,71,30.03,10.0,North,9.2,-,N/A,,Overcast,350,2013-07-31 22:54:00
6:54 PM,73.9,64.9,73,30.02,10.0,North,10.4,-,N/A,,Overcast,10,2013-07-31 23:54:00
7:54 PM,73.0,64.0,73,30.04,10.0,North,5.8,-,N/A,,Overcast,350,2013-08-01 00:54:00
8:21 PM,70.0,64.0,81,30.07,10.0,North,5.8,-,N/A,,Scattered Clouds,360,2013-08-01 01:21:00
8:54 PM,70.0,64.0,81,30.06,10.0,NNW,3.5,-,N/A,,Clear,340,2013-08-01 01:54:00
9:54 PM,66.9,63.0,87,30.06,10.0,Calm,Calm,-,N/A,,Clear,0,2013-08-01 02:54:00
10:54 PM,64.9,63.0,93,30.06,7.0,WSW,3.5,-,N/A,,Clear,250,2013-08-01 03:54:00
11:54 PM,66.0,63.0,90,30.07,8.0,West,3.5,-,N/A,,Clear,280,2013-08-01 04:54:00